Regional Weather Roundup
Issued by NWS

Home | Current Version | Previous Version | Graphics & Text | Print | Product List | Glossary On
Versions: 1 2 3 4 5 6 7 8 9 10 11 12 13 14 15 16 17 18 19 20 21 22 23 24 25 26 27 28 29 30 31 32 33 34 35 36 37 38 39 40 41 42 43 44 45 46 47 48 49 50
000
ASUS45 KCYS 211810
RWRWY

WYOMING REGIONAL WEATHER ROUNDUP
NATIONAL WEATHER SERVICE CHEYENNE WY
1100 AM MST SUN DEC 21 2014

NOTE:  "FAIR" INDICATES FEW OR NO CLOUDS BELOW 12,000 FEET
WITH NO SIGNIFICANT WEATHER AND/OR OBSTRUCTIONS TO VISIBILITY.

WYZ001-211900-
YELLOWSTONE NATIONAL PARK

CITY           SKY/WX    TMP DP  RH WIND       PRES   REMARKS
LK YELLOWSTONE   N/A     31  25  78 W12G23    29.63F WCI  22
6HR MIN TEMP:  26; 6HR MAX TEMP:  31; 6HR PCP:  0.21;

W YELLOWSTONE  NOT AVBL

$$
WYZ002>013-054>058-071-098>099-211900-
NORTHERN WYOMING

CITY           SKY/WX    TMP DP  RH WIND       PRES   REMARKS
JACKSON        CLOUDY    36  34  93 S18       29.66F WCI  25
CODY           FAIR      46  28  49 W15G28    29.49R
GREYBULL       FAIR      30  23  75 S9        29.54F WCI  22
6HR MIN TEMP:  15; 6HR MAX TEMP:  30;

WORLAND        FAIR      29  24  82 S6        29.55R WCI  23
6HR MIN TEMP:  15; 6HR MAX TEMP:  30; 6HR PCP: TRACE;

SHERIDAN       LGT RAIN  38  30  73 N7        29.47R WCI  33
6HR MIN TEMP:  21; 6HR MAX TEMP:  42; 6HR PCP:  0.01;

BUFFALO        LGT RAIN  43  23  45 NE8       29.48R
6HR MIN TEMP:  29; 6HR MAX TEMP:  46; 6HR PCP: TRACE;

GILLETTE       CLOUDY    43  27  53 W6        29.45S
6HR MIN TEMP:  33; 6HR MAX TEMP:  43;

HULETT           N/A    N/A N/A N/A MISG        N/A
NEWCASTLE      FAIR      37  32  81 CALM      29.48F

$$
WYZ014>020-022>026-101>103-211900-
CENTRAL WYOMING

CITY           SKY/WX    TMP DP  RH WIND       PRES   REMARKS
BIG PINEY      LGT SNOW  34  28  79 W21       29.72F WCI  22
6HR MIN TEMP:  24; 6HR MAX TEMP:  34; 6HR PCP: TRACE;

PINEDALE       LGT SNOW  32  32 100 S7        29.72F WCI  26
DUBOIS         NOT AVBL
LANDER         FAIR      34  24  67 SE3       29.59S
6HR MIN TEMP:  16; 6HR MAX TEMP:  35;

RIVERTON       FAIR      36  27  69 NW9       29.60S WCI  29
6HR MIN TEMP:  10; 6HR MAX TEMP:  36;

CASPER         PTSUNNY   38  30  73 W16G23    29.56F WCI  29
6HR MIN TEMP:  34; 6HR MAX TEMP:  40;

DOUGLAS        FAIR      45  28  51 W33G44    29.49F
6HR MIN TEMP:  37; 6HR MAX TEMP:  45;


$$
WYZ021-027>030-104>119-211900-
SOUTHERN WYOMING

CITY           SKY/WX    TMP DP  RH WIND       PRES   REMARKS
EVANSTON       LGT SNOW  33  32  96 SW23G30   29.88F FOG     WCI  21
6HR MIN TEMP:  31; 6HR MAX TEMP:  33; 6HR PCP: TRACE;

KEMMERER       CLOUDY    34  32  93 SW26G33   29.79F WCI  21
FORT BRIDGER   CLOUDY    37  34  89 W33G48    29.84F WCI  24
ROCK SPRINGS   FAIR      36  30  79 W35G52    29.76S WCI  22
6HR MIN TEMP:  30; 6HR MAX TEMP:  36; 6HR PCP: TRACE;

DIXON          CLOUDY    33  30  88 S28G35    29.82F FOG     WCI  19
RAWLINS        CLOUDY    33  28  81 SW26G38   29.70S WCI  20
6HR MIN TEMP:  30; 6HR MAX TEMP:  33; 6HR PCP:  0.01;

SARATOGA       MOCLDY    32  28  86 W30G40    29.69F WCI  18
LARAMIE        CLOUDY    31  27  85 SW15      29.64F WCI  20
6HR MIN TEMP:  29; 6HR MAX TEMP:  34;

CHEYENNE       FAIR      42  22  44 W24G38    29.59F
6HR MIN TEMP:  33; 6HR MAX TEMP:  44;

TORRINGTON     CLOUDY   N/A N/A N/A W26G36    29.50F
PINE BLUFFS    MOCLDY    41  23  48 S10       29.59F

$$



USA.gov is the U.S. government's official web portal to all federal, state and local government web resources and services.